QPF
0.00 0.00 0.00 0.00 0.00 0.00 0.00 0.00 0.00 0.00 0.00 0.00 0.00 0.00 0.00 0.00 0.00 0.00 0.00 0.00 0.00 0.00 0.00 0.00 0.00 0.00 0.00 0.00 0.00 0.00 0.00 0.00 0.00 0.00 0.00 0.00 0.00 0.00 0.00 0.00 0.00 0.00 0.00 0.01 0.00 0.00 0.00 0.00 0.00
0.00 0.00 0.00 0.00 0.00 0.00 0.00 0.00 0.00 0.00 0.00 0.00 0.00 0.00 0.00 0.00 0.00 0.00 0.00 0.00 0.00 0.00 0.00 0.00 0.00 0.00 0.00 0.00 0.00 0.00 0.00 0.00 0.00 0.00 0.00 0.00 0.00 0.00 0.00 0.00 0.00 0.00 0.00 0.00 0.00 0.00 0.00 0.00 0.00
0.00 0.00 0.00 0.00 0.00 0.00 0.00 0.00 0.00 0.00 0.00 0.00 0.00 0.00 0.00 0.00 0.00 0.00 0.00 0.00 0.00 0.00 0.00 0.00 0.00 0.00 0.00 0.00 0.00 0.00 0.00 0.00 0.00 0.00 0.00 0.00 0.00 0.00 0.00 0.00 0.00 0.00 0.00 0.00 0.00 0.00 0.00 0.00 0.00
0.00 0.00 0.00 0.00 0.00 0.00 0.00 0.00 0.00 0.00 0.00 0.00 0.00 0.00 0.00 0.00 0.00 0.00 0.00 0.00 0.00 0.00 0.00 0.00 0.00 0.00 0.00 0.00 0.00 0.00 0.00 0.00 0.00 0.00 0.00 0.00 0.00 0.00 0.00 0.00 0.00 0.00 0.00 0.00 0.00 0.00 0.00 0.00 0.00
0.00 0.00 0.00 0.00 0.00 0.00 0.00 0.00 0.00 0.00 0.00 0.00 0.00 0.00 0.00 0.00 0.00 0.00 0.00 0.00 0.00 0.00 0.00 0.00 0.00 0.00 0.00 0.00 0.00 0.00 0.00 0.00 0.00 0.00 0.00 0.00 0.00 0.00 0.00 0.00 0.00 0.00 0.00 0.00 0.00 0.00 0.00 0.00 0.00
0.00 0.00 0.00 0.00 0.00 0.00 0.00 0.00 0.00 0.00 0.00 0.00 0.00 0.00 0.00 0.00 0.00 0.00 0.00 0.00 0.00 0.00 0.00 0.00 0.00 0.00 0.00 0.00 0.00 0.00 0.00 0.00 0.00 0.00 0.00 0.00 0.00 0.00 0.00 0.00 0.00 0.00 0.00 0.00 0.00 0.00 0.00 0.00 0.00
0.00 0.00 0.00 0.00 0.00 0.00 0.00 0.00 0.00 0.00 0.00 0.00 0.00 0.00 0.00 0.00 0.00 0.00 0.00 0.00 0.00 0.00 0.00 0.00 0.00 0.00 0.00 0.00 0.00 0.00 0.00 0.00 0.00 0.00 0.00 0.00 0.00 0.00 0.00 0.00 0.00 0.00 0.00 0.00 0.00 0.00 0.00 0.00 0.00
0.00 0.00 0.00 0.00 0.00 0.00 0.00 0.00 0.00 0.00 0.00 0.00 0.00 0.00 0.00 0.00 0.00 0.00 0.00 0.00 0.00 0.00 0.00 0.00 0.00 0.00 0.00 0.00 0.00 0.00 0.00 0.00 0.00 0.00 0.00 0.00 0.00 0.00 0.00 0.00 0.00 0.00 0.00 0.00 0.00 0.00 0.00 0.00 0.00
0.00 0.00 0.00 0.00 0.00 0.00 0.00 0.00 0.00 0.00 0.00 0.00 0.00 0.00 0.00 0.00 0.00 0.00 0.00 0.00 0.00 0.00 0.00 0.00 0.00 0.00 0.00 0.00 0.00 0.00 0.00 0.00 0.00 0.00 0.00 0.00 0.00 0.00 0.00 0.00 0.00 0.00 0.00 0.00 0.00 0.00 0.00 0.00 0.00
0.00 0.00 0.00 0.00 0.00 0.00 0.00 0.00 0.00 0.00 0.00 0.00 0.00 0.00 0.00 0.00 0.00 0.00 0.00 0.00 0.00 0.00 0.00 0.00 0.00 0.00 0.00 0.00 0.00 0.00 0.00 0.00 0.00 0.00 0.00 0.00 0.00 0.00 0.00 0.00 0.00 0.00 0.00 0.00 0.00 0.00 0.00 0.00 0.00
0.00 0.00 0.00 0.00 0.00 0.00 0.00 0.00 0.00 0.00 0.00 0.00 0.00 0.00 0.00 0.00 0.00 0.00 0.00 0.00 0.00 0.00 0.00 0.00 0.00 0.00 0.00 0.00 0.00 0.00 0.00 0.00 0.00 0.00 0.00 0.00 0.00 0.00 0.00 0.00 0.00 0.00 0.00 0.00 0.00 0.00 0.00 0.00 0.00
0.00 0.00 0.00 0.00 0.00 0.00 0.00 0.00 0.00 0.00 0.00 0.00 0.00 0.00 0.00 0.00 0.00 0.00 0.00 0.00 0.00 0.00 0.00 0.00 0.00 0.00 0.00 0.00 0.00 0.00 0.00 0.00 0.00 0.00 0.00 0.00 0.00 0.00 0.00 0.00 0.00 0.00 0.00 0.00 0.00 0.00 0.00 0.00 0.00
0.00 0.00 0.00 0.00 0.00 0.00 0.00 0.00 0.00 0.00 0.00 0.00 0.00 0.00 0.00 0.00 0.00 0.00 0.00 0.00 0.00 0.00 0.00 0.00 0.00 0.00 0.00 0.00 0.00 0.00 0.00 0.00 0.00 0.00 0.00 0.00 0.00 0.00 0.00 0.00 0.00 0.00 0.00 0.00 0.00 0.00 0.00 0.00 0.00
0.00 0.00 0.00 0.00 0.00 0.00 0.00 0.00 0.00 0.00 0.00 0.00 0.00 0.00 0.00 0.00 0.00 0.00 0.00 0.00 0.00 0.00 0.00 0.00 0.00 0.00 0.00 0.00 0.00 0.00 0.00 0.00 0.00 0.00 0.00 0.00 0.00 0.00 0.00 0.00 0.00 0.00 0.00 0.00 0.00 0.00 0.00 0.00 0.00
0.00 0.00 0.00 0.00 0.00 0.00 0.00 0.00 0.00 0.00 0.00 0.00 0.00 0.00 0.00 0.00 0.00 0.00 0.00 0.00 0.00 0.00 0.00 0.00 0.00 0.00 0.00 0.00 0.00 0.00 0.00 0.00 0.00 0.00 0.00 0.00 0.00 0.00 0.00 0.00 0.00 0.00 0.00 0.00 0.00 0.00 0.00 0.00 0.00
0.00 0.00 0.00 0.00 0.00 0.00 0.00 0.00 0.00 0.00 0.00 0.00 0.00 0.00 0.00 0.00 0.00 0.00 0.00 0.00 0.00 0.00 0.00 0.00 0.00 0.00 0.00 0.00 0.00 0.00 0.00 0.00 0.00 0.00 0.00 0.00 0.00 0.00 0.00 0.00 0.00 0.00 0.00 0.00 0.00 0.00 0.00 0.00 0.00
0.00 0.00 0.00 0.00 0.00 0.00 0.00 0.00 0.00 0.00 0.00 0.00 0.00 0.00 0.00 0.00 0.00 0.00 0.00 0.00 0.00 0.00 0.00 0.00 0.00 0.00 0.00 0.00 0.00 0.00 0.00 0.00 0.00 0.00 0.00 0.00 0.00 0.00 0.00 0.00 0.00 0.00 0.00 0.00 0.00 0.00 0.00 0.00 0.00
0.00 0.00 0.00 0.00 0.00 0.00 0.00 0.00 0.00 0.00 0.00 0.00 0.00 0.00 0.00 0.00 0.00 0.00 0.00 0.00 0.00 0.00 0.00 0.00 0.00 0.00 0.00 0.00 0.00 0.00 0.00 0.00 0.00 0.00 0.00 0.00 0.00 0.00 0.00 0.00 0.00 0.00 0.00 0.00 0.00 0.00 0.00 0.00 0.00
0.00 0.00 0.00 0.00 0.00 0.00 0.00 0.00 0.00 0.00 0.00 0.00 0.00 0.00 0.00 0.00 0.00 0.00 0.00 0.00 0.00 0.00 0.00 0.00 0.00 0.00 0.00 0.00 0.00 0.00 0.00 0.00 0.00 0.00 0.00 0.00 0.00 0.00 0.00 0.00 0.00 0.00 0.00 0.00 0.00 0.00 0.00 0.00 0.00
0.00 0.00 0.00 0.00 0.00 0.00 0.00 0.00 0.00 0.00 0.00 0.00 0.00 0.00 0.00 0.00 0.00 0.00 0.00 0.00 0.00 0.00 0.00 0.00 0.00 0.00 0.00 0.00 0.00 0.00 0.00 0.00 0.00 0.00 0.00 0.00 0.00 0.00 0.00 0.00 0.00 0.00 0.00 0.00 0.00 0.00 0.00 0.00 0.00
0.00 0.00 0.00 0.00 0.00 0.00 0.00 0.00 0.00 0.00 0.00 0.00 0.00 0.00 0.00 0.00 0.00 0.00 0.00 0.00 0.00 0.00 0.00 0.00 0.00 0.00 0.00 0.00 0.00 0.00 0.00 0.00 0.00 0.00 0.00 0.00 0.00 0.00 0.00 0.00 0.00 0.00 0.00 0.00 0.00 0.00 0.01 0.01 0.01
0.00 0.00 0.00 0.00 0.00 0.00 0.00 0.00 0.00 0.00 0.00 0.00 0.00 0.00 0.00 0.00 0.00 0.00 0.00 0.00 0.00 0.00 0.00 0.00 0.00 0.00 0.00 0.00 0.00 0.00 0.00 0.00 0.00 0.00 0.00 0.00 0.00 0.00 0.00 0.00 0.00 0.00 0.00 0.00 0.00 0.00 0.01 0.01 0.02
0.00 0.00 0.00 0.00 0.00 0.00 0.00 0.00 0.00 0.00 0.00 0.00 0.00 0.00 0.00 0.00 0.00 0.00 0.00 0.00 0.00 0.00 0.00 0.00 0.00 0.00 0.00 0.00 0.00 0.00 0.00 0.00 0.00 0.00 0.00 0.00 0.00 0.00 0.00 0.00 0.00 0.00 0.00 0.00 0.00 0.00 0.01 0.01 0.02
0.00 0.00 0.00 0.00 0.00 0.00 0.00 0.00 0.00 0.00 0.00 0.00 0.00 0.00 0.00 0.00 0.00 0.00 0.00 0.00 0.00 0.00 0.00 0.00 0.00 0.00 0.00 0.00 0.00 0.00 0.00 0.00 0.00 0.00 0.00 0.00 0.00 0.00 0.00 0.00 0.00 0.00 0.00 0.00 0.00 0.01 0.01 0.01 0.02
0.00 0.00 0.00 0.00 0.00 0.00 0.00 0.00 0.00 0.00 0.00 0.00 0.00 0.00 0.00 0.00 0.00 0.00 0.00 0.00 0.00 0.00 0.00 0.00 0.00 0.00 0.00 0.00 0.00 0.00 0.00 0.00 0.00 0.00 0.00 0.00 0.00 0.00 0.00 0.00 0.00 0.00 0.00 0.00 0.00 0.01 0.01 0.01 0.02
0.00 0.00 0.00 0.00 0.00 0.00 0.00 0.00 0.00 0.00 0.00 0.00 0.00 0.00 0.00 0.00 0.00 0.00 0.00 0.00 0.00 0.00 0.00 0.00 0.00 0.00 0.00 0.00 0.00 0.00 0.00 0.00 0.00 0.00 0.00 0.00 0.00 0.00 0.00 0.00 0.00 0.00 0.00 0.00 0.00 0.01 0.01 0.01 0.02
0.00 0.00 0.00 0.00 0.00 0.00 0.00 0.00 0.00 0.00 0.00 0.00 0.00 0.00 0.00 0.00 0.00 0.00 0.00 0.00 0.00 0.00 0.00 0.00 0.00 0.00 0.00 0.00 0.00 0.00 0.00 0.00 0.00 0.00 0.00 0.00 0.00 0.00 0.00 0.00 0.00 0.00 0.00 0.00 0.00 0.01 0.01 0.01 0.02
0.00 0.00 0.00 0.00 0.00 0.00 0.00 0.00 0.00 0.00 0.00 0.00 0.00 0.00 0.00 0.00 0.00 0.00 0.00 0.00 0.00 0.00 0.00 0.00 0.00 0.00 0.00 0.00 0.00 0.00 0.00 0.00 0.00 0.00 0.00 0.00 0.00 0.00 0.00 0.00 0.00 0.00 0.00 0.00 0.00 0.00 0.01 0.01 0.01
0.00 0.00 0.00 0.00 0.00 0.00 0.00 0.00 0.00 0.00 0.00 0.00 0.00 0.00 0.00 0.00 0.00 0.00 0.00 0.00 0.00 0.00 0.00 0.00 0.00 0.00 0.00 0.00 0.00 0.00 0.00 0.00 0.00 0.00 0.00 0.00 0.00 0.00 0.00 0.00 0.00 0.00 0.00 0.00 0.00 0.00 0.00 0.00 0.00
0.00 0.00 0.00 0.00 0.00 0.00 0.00 0.00 0.00 0.00 0.00 0.00 0.00 0.00 0.00 0.00 0.00 0.00 0.00 0.00 0.00 0.00 0.00 0.00 0.00 0.00 0.00 0.00 0.00 0.00 0.00 0.00 0.00 0.00 0.00 0.00 0.00 0.00 0.00 0.00 0.00 0.00 0.00 0.00 0.00 0.00 0.00 0.00 0.00
MSLP
1013.88 1014.50 1015.53 1016.88 1018.43 1020.02 1021.48 1022.68 1023.55 1024.09 1024.39 1024.60 1024.86 1025.29 1025.96 1026.88 1027.96 1029.08 1030.09 1030.87 1031.35 1031.51 1031.41 1031.13 1030.79 1030.47 1030.24 1030.08 1029.99 1029.91 1029.78 1029.58 1029.31 1028.98 1028.65 1028.35 1028.10 1027.91 1027.77 1027.62 1027.44 1027.18 1026.85 1026.43 1025.97 1025.50 1025.05 1024.62 1024.23
1014.25 1015.03 1016.19 1017.63 1019.22 1020.79 1022.20 1023.32 1024.12 1024.61 1024.89 1025.11 1025.40 1025.88 1026.60 1027.54 1028.61 1029.70 1030.64 1031.35 1031.76 1031.86 1031.72 1031.42 1031.07 1030.76 1030.53 1030.38 1030.29 1030.21 1030.11 1029.94 1029.70 1029.43 1029.14 1028.87 1028.63 1028.44 1028.26 1028.07 1027.82 1027.51 1027.12 1026.67 1026.19 1025.72 1025.27 1024.85 1024.46
1014.74 1015.64 1016.87 1018.33 1019.88 1021.38 1022.68 1023.70 1024.42 1024.88 1025.18 1025.45 1025.83 1026.40 1027.19 1028.17 1029.24 1030.27 1031.15 1031.78 1032.11 1032.16 1031.99 1031.69 1031.35 1031.05 1030.83 1030.69 1030.61 1030.53 1030.43 1030.27 1030.05 1029.79 1029.52 1029.26 1029.02 1028.80 1028.57 1028.31 1028.00 1027.63 1027.20 1026.72 1026.24 1025.79 1025.36 1024.98 1024.61
1015.28 1016.27 1017.53 1018.95 1020.41 1021.77 1022.93 1023.84 1024.48 1024.92 1025.27 1025.63 1026.12 1026.80 1027.66 1028.67 1029.72 1030.71 1031.51 1032.05 1032.32 1032.33 1032.16 1031.88 1031.58 1031.32 1031.14 1031.02 1030.93 1030.85 1030.73 1030.55 1030.32 1030.06 1029.78 1029.50 1029.24 1028.98 1028.70 1028.39 1028.03 1027.61 1027.15 1026.67 1026.21 1025.78 1025.40 1025.06 1024.73
1015.85 1016.89 1018.13 1019.47 1020.80 1022.00 1023.01 1023.79 1024.37 1024.81 1025.21 1025.68 1026.28 1027.06 1027.98 1029.00 1030.02 1030.92 1031.63 1032.10 1032.32 1032.32 1032.18 1031.96 1031.73 1031.55 1031.42 1031.33 1031.25 1031.15 1030.99 1030.79 1030.52 1030.23 1029.93 1029.63 1029.34 1029.04 1028.73 1028.38 1027.99 1027.55 1027.09 1026.63 1026.19 1025.80 1025.46 1025.16 1024.87
1016.42 1017.48 1018.69 1019.92 1021.10 1022.13 1022.98 1023.64 1024.16 1024.61 1025.08 1025.64 1026.35 1027.19 1028.15 1029.15 1030.10 1030.91 1031.52 1031.92 1032.10 1032.12 1032.04 1031.92 1031.81 1031.73 1031.68 1031.63 1031.56 1031.43 1031.24 1030.98 1030.68 1030.35 1030.02 1029.70 1029.40 1029.09 1028.76 1028.40 1028.00 1027.56 1027.12 1026.68 1026.28 1025.92 1025.61 1025.33 1025.06
1017.00 1018.08 1019.22 1020.34 1021.35 1022.22 1022.92 1023.48 1023.95 1024.41 1024.93 1025.57 1026.35 1027.24 1028.19 1029.14 1030.00 1030.71 1031.22 1031.56 1031.73 1031.80 1031.81 1031.81 1031.83 1031.86 1031.90 1031.90 1031.83 1031.69 1031.46 1031.16 1030.82 1030.47 1030.13 1029.81 1029.51 1029.21 1028.89 1028.54 1028.15 1027.74 1027.31 1026.90 1026.52 1026.19 1025.89 1025.60 1025.31
1017.64 1018.71 1019.77 1020.77 1021.63 1022.33 1022.89 1023.35 1023.78 1024.25 1024.82 1025.51 1026.33 1027.23 1028.15 1029.03 1029.79 1030.39 1030.83 1031.11 1031.30 1031.43 1031.54 1031.67 1031.82 1031.97 1032.09 1032.13 1032.08 1031.92 1031.67 1031.34 1030.98 1030.63 1030.30 1030.00 1029.73 1029.46 1029.18 1028.85 1028.49 1028.09 1027.69 1027.29 1026.91 1026.58 1026.26 1025.95 1025.62
1018.34 1019.38 1020.37 1021.23 1021.94 1022.50 1022.93 1023.31 1023.70 1024.17 1024.76 1025.48 1026.31 1027.20 1028.07 1028.86 1029.53 1030.04 1030.41 1030.68 1030.89 1031.09 1031.31 1031.56 1031.83 1032.07 1032.25 1032.32 1032.28 1032.11 1031.84 1031.52 1031.17 1030.84 1030.55 1030.31 1030.08 1029.86 1029.61 1029.31 1028.97 1028.59 1028.18 1027.78 1027.39 1027.03 1026.69 1026.34 1025.96
1019.10 1020.10 1021.00 1021.74 1022.31 1022.73 1023.05 1023.35 1023.69 1024.15 1024.74 1025.47 1026.29 1027.15 1027.96 1028.68 1029.27 1029.71 1030.05 1030.32 1030.57 1030.84 1031.15 1031.50 1031.85 1032.16 1032.37 1032.46 1032.42 1032.24 1031.98 1031.67 1031.37 1031.09 1030.87 1030.69 1030.52 1030.35 1030.13 1029.85 1029.51 1029.13 1028.71 1028.29 1027.88 1027.48 1027.10 1026.71 1026.28
1019.89 1020.84 1021.64 1022.26 1022.70 1022.99 1023.21 1023.44 1023.74 1024.17 1024.76 1025.47 1026.26 1027.07 1027.83 1028.49 1029.02 1029.43 1029.76 1030.05 1030.36 1030.70 1031.09 1031.50 1031.90 1032.23 1032.45 1032.53 1032.47 1032.30 1032.05 1031.78 1031.53 1031.33 1031.19 1031.08 1030.98 1030.85 1030.66 1030.38 1030.03 1029.62 1029.18 1028.72 1028.28 1027.86 1027.44 1027.01 1026.55
1020.65 1021.53 1022.24 1022.74 1023.06 1023.24 1023.38 1023.54 1023.80 1024.20 1024.76 1025.44 1026.20 1026.96 1027.66 1028.27 1028.77 1029.18 1029.53 1029.87 1030.23 1030.63 1031.08 1031.53 1031.94 1032.26 1032.45 1032.51 1032.43 1032.25 1032.02 1031.80 1031.63 1031.51 1031.45 1031.42 1031.38 1031.28 1031.09 1030.81 1030.43 1029.98 1029.50 1029.02 1028.55 1028.10 1027.66 1027.22 1026.74
1021.30 1022.11 1022.71 1023.10 1023.32 1023.43 1023.49 1023.61 1023.83 1024.21 1024.73 1025.37 1026.07 1026.77 1027.43 1028.00 1028.49 1028.91 1029.30 1029.70 1030.12 1030.59 1031.07 1031.54 1031.94 1032.23 1032.38 1032.39 1032.28 1032.10 1031.90 1031.73 1031.62 1031.59 1031.61 1031.64 1031.64 1031.56 1031.37 1031.07 1030.66 1030.18 1029.67 1029.15 1028.66 1028.20 1027.76 1027.31 1026.84
1021.78 1022.49 1022.99 1023.29 1023.43 1023.48 1023.51 1023.60 1023.81 1024.16 1024.64 1025.23 1025.87 1026.51 1027.11 1027.65 1028.13 1028.58 1029.02 1029.48 1029.97 1030.49 1031.01 1031.49 1031.87 1032.12 1032.22 1032.19 1032.05 1031.86 1031.68 1031.56 1031.51 1031.55 1031.63 1031.71 1031.74 1031.67 1031.47 1031.15 1030.71 1030.21 1029.67 1029.14 1028.63 1028.17 1027.74 1027.30 1026.84
1022.03 1022.63 1023.04 1023.27 1023.37 1023.40 1023.43 1023.51 1023.71 1024.04 1024.48 1025.01 1025.58 1026.14 1026.69 1027.19 1027.67 1028.14 1028.63 1029.16 1029.72 1030.30 1030.86 1031.34 1031.71 1031.93 1032.00 1031.93 1031.78 1031.59 1031.43 1031.33 1031.33 1031.41 1031.53 1031.64 1031.68 1031.62 1031.42 1031.08 1030.63 1030.11 1029.56 1029.03 1028.53 1028.06 1027.63 1027.20 1026.75
1022.06 1022.56 1022.88 1023.06 1023.14 1023.18 1023.23 1023.34 1023.55 1023.86 1024.26 1024.71 1025.20 1025.69 1026.16 1026.63 1027.09 1027.58 1028.12 1028.71 1029.34 1029.98 1030.59 1031.10 1031.47 1031.69 1031.75 1031.67 1031.51 1031.33 1031.18 1031.11 1031.12 1031.22 1031.35 1031.47 1031.51 1031.45 1031.25 1030.91 1030.47 1029.95 1029.41 1028.88 1028.38 1027.91 1027.48 1027.04 1026.58
1021.91 1022.30 1022.55 1022.70 1022.79 1022.86 1022.95 1023.10 1023.32 1023.61 1023.96 1024.34 1024.74 1025.14 1025.54 1025.95 1026.40 1026.91 1027.49 1028.15 1028.85 1029.55 1030.21 1030.77 1031.18 1031.42 1031.50 1031.44 1031.30 1031.13 1030.99 1030.92 1030.94 1031.02 1031.14 1031.24 1031.27 1031.20 1031.01 1030.69 1030.26 1029.77 1029.24 1028.72 1028.22 1027.75 1027.30 1026.83 1026.35
1021.65 1021.94 1022.14 1022.28 1022.38 1022.49 1022.63 1022.80 1023.03 1023.29 1023.58 1023.88 1024.19 1024.49 1024.82 1025.19 1025.63 1026.16 1026.78 1027.50 1028.27 1029.05 1029.78 1030.40 1030.87 1031.16 1031.29 1031.27 1031.16 1031.02 1030.89 1030.81 1030.81 1030.86 1030.93 1031.00 1031.01 1030.92 1030.74 1030.43 1030.04 1029.58 1029.08 1028.58 1028.07 1027.58 1027.09 1026.59 1026.05
1021.37 1021.58 1021.74 1021.87 1021.99 1022.13 1022.30 1022.48 1022.68 1022.90 1023.11 1023.32 1023.53 1023.75 1024.02 1024.36 1024.80 1025.35 1026.03 1026.81 1027.66 1028.51 1029.31 1030.01 1030.55 1030.92 1031.12 1031.16 1031.11 1030.99 1030.87 1030.78 1030.74 1030.73 1030.75 1030.76 1030.72 1030.62 1030.44 1030.16 1029.80 1029.38 1028.92 1028.42 1027.91 1027.39 1026.86 1026.30 1025.71
1021.15 1021.30 1021.43 1021.56 1021.70 1021.84 1022.00 1022.15 1022.29 1022.42 1022.53 1022.63 1022.75 1022.91 1023.14 1023.47 1023.94 1024.55 1025.29 1026.14 1027.06 1027.99 1028.86 1029.63 1030.25 1030.69 1030.97 1031.09 1031.09 1031.02 1030.91 1030.80 1030.71 1030.64 1030.58 1030.52 1030.43 1030.30 1030.11 1029.85 1029.53 1029.15 1028.71 1028.23 1027.72 1027.17 1026.59 1025.98 1025.34
1021.06 1021.18 1021.30 1021.42 1021.54 1021.66 1021.75 1021.82 1021.85 1021.85 1021.83 1021.83 1021.86 1021.97 1022.19 1022.56 1023.08 1023.77 1024.60 1025.53 1026.51 1027.50 1028.43 1029.26 1029.94 1030.45 1030.80 1030.99 1031.06 1031.03 1030.94 1030.82 1030.68 1030.55 1030.41 1030.27 1030.12 1029.95 1029.74 1029.49 1029.19 1028.84 1028.44 1027.98 1027.46 1026.90 1026.28 1025.63 1024.96
1021.13 1021.24 1021.36 1021.47 1021.55 1021.59 1021.58 1021.50 1021.37 1021.20 1021.03 1020.90 1020.86 1020.95 1021.20 1021.63 1022.26 1023.05 1023.97 1024.99 1026.03 1027.07 1028.03 1028.89 1029.60 1030.16 1030.56 1030.82 1030.94 1030.96 1030.90 1030.77 1030.60 1030.41 1030.20 1029.99 1029.77 1029.55 1029.32 1029.07 1028.79 1028.47 1028.09 1027.65 1027.15 1026.57 1025.95 1025.28 1024.58
1021.34 1021.48 1021.60 1021.69 1021.71 1021.64 1021.47 1021.21 1020.87 1020.50 1020.16 1019.91 1019.80 1019.89 1020.20 1020.73 1021.48 1022.39 1023.43 1024.53 1025.63 1026.68 1027.65 1028.50 1029.21 1029.78 1030.21 1030.51 1030.69 1030.76 1030.73 1030.62 1030.44 1030.21 1029.95 1029.67 1029.39 1029.13 1028.87 1028.61 1028.34 1028.03 1027.68 1027.26 1026.78 1026.22 1025.60 1024.93 1024.23
1021.64 1021.82 1021.97 1022.03 1021.97 1021.78 1021.43 1020.95 1020.38 1019.79 1019.27 1018.90 1018.74 1018.85 1019.23 1019.88 1020.77 1021.82 1022.97 1024.14 1025.27 1026.33 1027.27 1028.07 1028.75 1029.31 1029.74 1030.07 1030.29 1030.41 1030.42 1030.34 1030.17 1029.93 1029.64 1029.32 1029.00 1028.69 1028.40 1028.13 1027.86 1027.57 1027.24 1026.85 1026.39 1025.86 1025.26 1024.61 1023.93
1021.97 1022.21 1022.37 1022.41 1022.28 1021.95 1021.41 1020.71 1019.92 1019.12 1018.43 1017.95 1017.75 1017.88 1018.35 1019.12 1020.15 1021.33 1022.58 1023.81 1024.96 1025.99 1026.88 1027.62 1028.24 1028.75 1029.16 1029.50 1029.75 1029.91 1029.98 1029.95 1029.81 1029.59 1029.29 1028.96 1028.61 1028.28 1027.96 1027.67 1027.39 1027.11 1026.80 1026.43 1026.00 1025.50 1024.94 1024.32 1023.67
1022.25 1022.54 1022.73 1022.75 1022.55 1022.09 1021.39 1020.50 1019.50 1018.52 1017.69 1017.11 1016.88 1017.04 1017.59 1018.47 1019.61 1020.91 1022.24 1023.51 1024.67 1025.66 1026.48 1027.15 1027.68 1028.13 1028.52 1028.85 1029.12 1029.33 1029.45 1029.47 1029.39 1029.20 1028.92 1028.60 1028.24 1027.89 1027.56 1027.26 1026.97 1026.69 1026.38 1026.04 1025.63 1025.17 1024.63 1024.05 1023.43
1022.40 1022.73 1022.94 1022.95 1022.69 1022.14 1021.31 1020.27 1019.12 1018.00 1017.06 1016.42 1016.17 1016.36 1016.96 1017.93 1019.16 1020.53 1021.91 1023.21 1024.35 1025.30 1026.06 1026.65 1027.12 1027.51 1027.86 1028.18 1028.47 1028.71 1028.88 1028.96 1028.93 1028.78 1028.55 1028.24 1027.89 1027.54 1027.20 1026.88 1026.59 1026.30 1026.00 1025.66 1025.27 1024.83 1024.32 1023.76 1023.16
1022.39 1022.73 1022.94 1022.93 1022.63 1022.01 1021.11 1019.98 1018.74 1017.55 1016.55 1015.87 1015.62 1015.82 1016.46 1017.47 1018.75 1020.16 1021.57 1022.87 1023.99 1024.91 1025.62 1026.16 1026.58 1026.93 1027.25 1027.56 1027.86 1028.12 1028.33 1028.45 1028.46 1028.36 1028.16 1027.88 1027.55 1027.20 1026.86 1026.53 1026.23 1025.92 1025.61 1025.27 1024.88 1024.45 1023.95 1023.41 1022.83
1022.19 1022.51 1022.68 1022.64 1022.31 1021.67 1020.73 1019.58 1018.32 1017.12 1016.11 1015.43 1015.18 1015.39 1016.03 1017.05 1018.33 1019.73 1021.14 1022.43 1023.54 1024.43 1025.13 1025.65 1026.06 1026.40 1026.71 1027.02 1027.33 1027.60 1027.83 1027.97 1028.01 1027.94 1027.76 1027.50 1027.19 1026.85 1026.50 1026.16 1025.84 1025.51 1025.18 1024.82 1024.42 1023.97 1023.48 1022.94 1022.37
1021.83 1022.07 1022.18 1022.08 1021.72 1021.07 1020.14 1019.02 1017.81 1016.64 1015.68 1015.03 1014.79 1014.99 1015.61 1016.60 1017.84 1019.21 1020.58 1021.85 1022.96 1023.87 1024.58 1025.14 1025.57 1025.94 1026.27 1026.59 1026.90 1027.17 1027.39 1027.53 1027.57 1027.50 1027.33 1027.08 1026.77 1026.43 1026.08 1025.73 1025.38 1025.03 1024.66 1024.26 1023.83 1023.37 1022.86 1022.32 1021.76
Thickness
5750 5752 5753 5743 5722 5709 5691 5691 5691 5681 5677 5675 5676 5671 5656 5645 5642 5625 5615 5618 5617 5615 5614 5613 5614 5615 5615 5615 5616 5615 5615 5615 5615 5615 5615 5615 5616 5616 5617 5617 5618 5619 5620 5621 5623 5625 5627 5630 5633
5754 5757 5750 5734 5713 5695 5684 5691 5687 5682 5676 5674 5675 5670 5657 5640 5635 5626 5619 5617 5616 5614 5611 5609 5610 5610 5610 5610 5609 5609 5608 5608 5608 5607 5607 5607 5607 5607 5608 5608 5608 5609 5610 5611 5612 5613 5615 5618 5621
5756 5758 5741 5728 5709 5695 5687 5691 5680 5677 5677 5675 5666 5662 5653 5640 5634 5625 5619 5617 5615 5611 5607 5604 5605 5604 5604 5603 5603 5602 5601 5600 5600 5599 5599 5599 5598 5598 5598 5598 5597 5598 5598 5599 5600 5601 5603 5605 5608
5756 5750 5742 5722 5698 5700 5700 5690 5682 5676 5675 5675 5664 5649 5641 5638 5633 5623 5618 5616 5612 5607 5604 5601 5600 5599 5598 5597 5596 5595 5594 5593 5592 5591 5590 5589 5589 5589 5588 5587 5586 5586 5586 5587 5587 5588 5590 5592 5594
5755 5742 5727 5707 5696 5701 5700 5693 5688 5678 5672 5673 5667 5647 5633 5629 5626 5620 5616 5613 5608 5604 5600 5597 5595 5594 5592 5590 5589 5587 5586 5584 5583 5582 5580 5579 5578 5578 5577 5575 5574 5573 5572 5572 5573 5573 5575 5576 5579
5744 5740 5718 5703 5693 5697 5696 5695 5692 5683 5674 5671 5666 5647 5630 5626 5622 5617 5613 5609 5604 5600 5597 5594 5591 5589 5586 5584 5581 5579 5577 5575 5574 5572 5570 5568 5567 5565 5563 5561 5559 5558 5557 5556 5556 5556 5557 5558 5560
5738 5730 5719 5709 5690 5690 5692 5695 5690 5682 5671 5667 5668 5647 5628 5624 5619 5614 5610 5606 5601 5597 5593 5590 5587 5583 5580 5578 5574 5571 5569 5566 5564 5561 5558 5556 5553 5551 5548 5545 5542 5541 5539 5537 5536 5536 5535 5536 5538
5743 5732 5721 5712 5695 5691 5692 5691 5690 5683 5672 5670 5667 5650 5633 5625 5618 5613 5607 5603 5598 5594 5589 5585 5582 5577 5573 5570 5567 5564 5561 5557 5554 5550 5547 5543 5539 5536 5532 5528 5525 5522 5519 5516 5513 5511 5510 5510 5511
5747 5724 5714 5713 5705 5692 5689 5681 5677 5675 5664 5660 5657 5651 5646 5628 5617 5610 5605 5601 5596 5591 5586 5581 5576 5571 5567 5563 5559 5555 5551 5547 5543 5539 5535 5530 5526 5521 5517 5512 5507 5502 5497 5492 5487 5483 5480 5479 5478
5733 5713 5701 5704 5708 5695 5685 5678 5668 5664 5656 5650 5643 5637 5631 5622 5615 5608 5605 5601 5594 5588 5581 5575 5570 5565 5560 5555 5551 5547 5542 5537 5533 5528 5523 5518 5512 5506 5501 5494 5487 5481 5473 5466 5459 5452 5447 5443 5442
5719 5702 5700 5698 5702 5695 5683 5675 5668 5662 5653 5652 5643 5631 5624 5618 5613 5609 5606 5599 5591 5584 5576 5570 5564 5558 5552 5548 5543 5538 5533 5528 5523 5517 5511 5505 5498 5491 5483 5475 5467 5458 5449 5439 5430 5421 5413 5407 5404
5707 5699 5698 5689 5692 5688 5680 5673 5664 5663 5663 5664 5653 5637 5625 5618 5613 5609 5604 5596 5587 5579 5571 5564 5558 5552 5546 5540 5535 5530 5524 5519 5513 5506 5499 5492 5484 5475 5465 5455 5444 5433 5421 5409 5398 5388 5380 5374 5369
5698 5689 5687 5683 5685 5682 5677 5668 5666 5663 5661 5657 5649 5635 5625 5618 5613 5608 5602 5593 5584 5575 5567 5559 5552 5546 5540 5534 5528 5522 5516 5509 5502 5495 5486 5478 5468 5457 5445 5432 5419 5405 5390 5378 5366 5356 5349 5343 5339
5696 5688 5681 5679 5676 5674 5668 5667 5661 5663 5659 5650 5641 5631 5624 5619 5614 5606 5598 5589 5581 5571 5563 5554 5547 5540 5534 5527 5520 5514 5507 5499 5491 5482 5473 5462 5450 5437 5423 5408 5392 5377 5362 5347 5336 5327 5320 5315 5311
5694 5683 5676 5675 5673 5670 5666 5661 5661 5667 5656 5646 5637 5629 5624 5619 5613 5605 5595 5587 5578 5568 5558 5549 5541 5534 5527 5520 5513 5505 5498 5489 5480 5470 5458 5446 5432 5417 5401 5384 5366 5350 5335 5322 5312 5303 5296 5290 5284
5694 5687 5675 5675 5675 5667 5658 5659 5678 5667 5654 5643 5635 5629 5623 5618 5612 5604 5595 5585 5575 5564 5554 5545 5537 5529 5521 5513 5505 5497 5488 5479 5468 5456 5443 5429 5413 5397 5379 5360 5343 5327 5313 5300 5290 5282 5273 5265 5258
5688 5687 5691 5673 5675 5667 5656 5662 5668 5662 5653 5643 5636 5630 5623 5617 5611 5604 5595 5584 5572 5561 5550 5541 5532 5523 5515 5506 5497 5488 5479 5468 5456 5443 5429 5413 5396 5377 5358 5340 5323 5308 5294 5282 5271 5262 5250 5242 5234
5690 5695 5698 5685 5674 5669 5660 5663 5668 5659 5652 5645 5639 5633 5627 5621 5613 5605 5594 5583 5571 5558 5547 5537 5527 5518 5509 5499 5489 5479 5468 5456 5443 5430 5414 5397 5379 5360 5340 5323 5306 5291 5279 5266 5254 5244 5233 5221 5211
5697 5692 5689 5689 5679 5671 5666 5669 5675 5663 5652 5647 5642 5636 5631 5625 5617 5607 5595 5582 5568 5556 5543 5533 5522 5512 5502 5490 5479 5467 5456 5444 5431 5417 5401 5383 5364 5344 5325 5308 5292 5277 5264 5251 5239 5227 5217 5207 5193
5693 5689 5690 5683 5678 5672 5670 5673 5681 5673 5659 5652 5647 5642 5635 5628 5620 5610 5596 5581 5568 5554 5541 5529 5517 5506 5494 5483 5470 5458 5446 5434 5421 5406 5388 5369 5350 5330 5312 5295 5280 5265 5252 5239 5226 5213 5202 5193 5179
5694 5690 5683 5679 5683 5678 5665 5672 5679 5677 5666 5656 5651 5647 5642 5634 5624 5613 5598 5582 5567 5553 5539 5527 5512 5499 5487 5475 5462 5449 5437 5424 5409 5393 5375 5356 5337 5318 5300 5284 5269 5255 5240 5228 5215 5202 5189 5180 5171
5686 5684 5681 5676 5667 5671 5670 5659 5669 5669 5661 5657 5652 5647 5643 5638 5629 5617 5601 5584 5568 5552 5537 5521 5507 5493 5480 5467 5454 5440 5426 5412 5398 5382 5364 5346 5326 5307 5290 5274 5260 5246 5232 5219 5206 5194 5180 5169 5162
5685 5683 5677 5673 5667 5665 5671 5660 5674 5672 5662 5661 5657 5652 5646 5639 5631 5619 5604 5586 5568 5550 5532 5516 5501 5487 5473 5460 5446 5431 5417 5403 5388 5372 5354 5336 5317 5299 5282 5267 5252 5238 5225 5212 5200 5188 5176 5164 5154
5685 5680 5675 5670 5664 5659 5677 5666 5671 5671 5679 5676 5669 5661 5651 5642 5631 5618 5602 5583 5564 5545 5528 5511 5495 5481 5467 5453 5439 5424 5409 5394 5378 5362 5344 5327 5309 5292 5276 5261 5246 5232 5219 5207 5195 5183 5172 5162 5153
5679 5671 5666 5661 5651 5667 5677 5666 5671 5691 5690 5683 5674 5664 5655 5643 5630 5615 5597 5579 5560 5541 5523 5507 5491 5476 5462 5447 5432 5418 5403 5387 5370 5353 5336 5319 5302 5286 5271 5256 5242 5228 5216 5203 5191 5180 5169 5159 5151
5683 5674 5659 5654 5658 5668 5669 5661 5684 5696 5690 5683 5674 5664 5653 5641 5627 5612 5595 5576 5557 5538 5521 5504 5488 5473 5458 5442 5427 5412 5397 5380 5364 5347 5329 5312 5296 5281 5267 5252 5238 5225 5212 5200 5188 5177 5166 5158 5149
5677 5675 5671 5658 5664 5656 5666 5684 5692 5688 5681 5672 5664 5655 5646 5636 5624 5609 5592 5574 5556 5537 5520 5502 5486 5470 5454 5438 5422 5406 5391 5375 5358 5342 5324 5308 5292 5277 5263 5249 5236 5223 5210 5198 5186 5175 5165 5156 5149
5669 5669 5661 5653 5646 5639 5662 5677 5676 5674 5677 5672 5662 5655 5647 5637 5623 5607 5590 5573 5555 5537 5518 5501 5484 5467 5451 5435 5418 5403 5386 5370 5355 5338 5321 5305 5289 5275 5261 5247 5234 5222 5209 5197 5185 5174 5164 5155 5148
5661 5661 5658 5656 5653 5634 5636 5660 5699 5692 5690 5682 5671 5663 5653 5638 5623 5606 5589 5571 5553 5535 5516 5498 5481 5465 5448 5432 5415 5399 5383 5367 5352 5335 5319 5303 5288 5273 5259 5246 5233 5221 5209 5197 5185 5175 5165 5156 5149
5674 5670 5662 5645 5647 5643 5632 5654 5702 5699 5693 5683 5674 5667 5656 5640 5622 5604 5586 5568 5550 5531 5514 5496 5480 5463 5447 5430 5413 5396 5380 5364 5349 5333 5318 5302 5286 5272 5258 5246 5233 5221 5209 5198 5187 5177 5168 5158 5150